UAE8VR LGAV-OMDB

Flight info

Callsign UAE8VR
Flight time N/A
Altitude 33000
Route KEA UL607 PAXIS Y707 OBRAN L321 REXUM M872 EVANO/N0489F350 M872 BDB Y214 RAPMA DCT KUVSO DCT KATIT DCT PEKEM M628 RIGIL G783 ASPED Q308 KIPOK Q568 IMPED
Aircraft B77W/H-SDE1E2E3FGHIJ2J3J4J5M1RWXY/LB1D1

Departure

Time N/A
Airport Athens Eleftherios Venizelos International Airport (LGAV)

Arrival

Time 2026-04-30 21:25
Airport Dubai International Airport (OMDB)
Time Latitude Longitude Altitude Speed Heading
2026-04-30 17:39 32.68736 28.32145 33029 ft 558 kts 152°
2026-04-30 17:42 32.36101 28.56969 33032 ft 558 kts 152°
2026-04-30 17:43 32.20860 28.68489 33018 ft 558 kts 152°
2026-04-30 17:44 32.01225 28.83260 33035 ft 558 kts 152°
2026-04-30 17:47 31.71732 29.05306 33032 ft 559 kts 152°
2026-04-30 17:48 31.48794 29.22336 33034 ft 559 kts 152°
2026-04-30 17:50 31.22487 29.41746 33031 ft 559 kts 153°
2026-04-30 17:52 31.02748 29.56224 33024 ft 559 kts 153°
2026-04-30 17:54 30.73080 29.77851 33011 ft 559 kts 153°
2026-04-30 17:56 30.46683 29.96959 33010 ft 559 kts 153°
2026-04-30 17:58 30.26842 30.11240 33000 ft 560 kts 153°
2026-04-30 18:00 30.00314 30.30228 32990 ft 561 kts 154°
2026-04-30 18:01 29.83693 30.42063 32989 ft 562 kts 154°
2026-04-30 18:02 29.63674 30.56255 32990 ft 564 kts 154°
2026-04-30 18:04 29.43606 30.70416 32988 ft 564 kts 154°
2026-04-30 18:06 29.16855 30.89190 32989 ft 564 kts 155°
2026-04-30 18:08 28.93439 31.05527 32994 ft 566 kts 155°
2026-04-30 18:10 28.67025 31.25434 32979 ft 582 kts 140°
2026-04-30 18:11 28.47890 31.49640 33022 ft 591 kts 136°
2026-04-30 18:13 28.34083 31.66904 33023 ft 590 kts 136°
2026-04-30 18:14 28.20338 31.84045 33032 ft 589 kts 136°
2026-04-30 18:15 28.03905 32.04849 33037 ft 594 kts 130°
2026-04-30 18:16 27.95577 32.21085 33016 ft 598 kts 120°
2026-04-30 18:17 27.91674 32.29397 32988 ft 599 kts 118°
2026-04-30 18:18 27.86404 32.42196 32966 ft 599 kts 115°
2026-04-30 18:18 27.83002 32.50778 32972 ft 599 kts 115°
2026-04-30 18:19 27.79533 32.59339 32967 ft 599 kts 116°
2026-04-30 18:19 27.76021 32.67878 33259 ft 598 kts 116°
2026-04-30 18:19 27.74266 32.72130 33518 ft 597 kts 116°
2026-04-30 18:20 27.72516 32.76371 33722 ft 596 kts 116°
2026-04-30 18:20 27.70765 32.80614 33943 ft 596 kts 116°
2026-04-30 18:20 27.69016 32.84850 34126 ft 594 kts 116°
2026-04-30 18:20 27.67276 32.89064 34392 ft 591 kts 116°
2026-04-30 18:21 27.65545 32.93254 34762 ft 586 kts 117°
2026-04-30 18:21 27.63829 32.97402 35005 ft 583 kts 117°
2026-04-30 18:21 27.62116 33.01538 34931 ft 581 kts 117°
2026-04-30 18:22 27.58718 33.09737 34942 ft 575 kts 117°
2026-04-30 18:22 27.53631 33.21954 34942 ft 574 kts 117°
2026-04-30 18:23 27.50240 33.30084 34942 ft 574 kts 117°
2026-04-30 18:23 27.46843 33.38216 34933 ft 574 kts 117°
2026-04-30 18:24 27.41750 33.50374 34930 ft 576 kts 117°
2026-04-30 18:25 27.38305 33.58577 34931 ft 576 kts 117°
2026-04-30 18:25 27.33181 33.70750 34914 ft 576 kts 117°
2026-04-30 18:26 27.28029 33.82951 34938 ft 575 kts 117°
2026-04-30 18:27 27.22875 33.95122 34939 ft 575 kts 117°
2026-04-30 18:28 27.17721 34.07255 34907 ft 573 kts 117°
2026-04-30 18:28 27.12568 34.19352 34907 ft 573 kts 117°
2026-04-30 18:29 27.06263 34.34102 34895 ft 572 kts 118°
2026-04-30 18:30 26.99361 34.50193 34900 ft 572 kts 118°
2026-04-30 18:31 26.94174 34.62242 34897 ft 572 kts 118°
2026-04-30 18:32 26.88981 34.74273 34903 ft 571 kts 118°
2026-04-30 18:33 26.83784 34.86276 34902 ft 570 kts 118°
2026-04-30 18:33 26.78588 34.98245 34904 ft 570 kts 118°
2026-04-30 18:34 26.73389 35.10187 34904 ft 568 kts 118°
2026-04-30 18:35 26.69921 35.18131 34907 ft 568 kts 118°
2026-04-30 18:35 26.66454 35.26061 34902 ft 568 kts 118°
2026-04-30 18:36 26.61248 35.37944 34904 ft 567 kts 118°
2026-04-30 18:37 26.56073 35.49825 34902 ft 567 kts 116°
2026-04-30 18:37 26.52948 35.57912 34903 ft 567 kts 115°
2026-04-30 18:38 26.49916 35.65974 34901 ft 567 kts 115°
2026-04-30 18:38 26.46844 35.74066 34901 ft 566 kts 115°
2026-04-30 18:39 26.43741 35.82146 34898 ft 566 kts 116°
2026-04-30 18:39 26.40634 35.90208 34897 ft 566 kts 116°
2026-04-30 18:40 26.37520 35.98276 34900 ft 567 kts 116°
2026-04-30 18:40 26.34398 36.06356 34892 ft 567 kts 116°
2026-04-30 18:41 26.31271 36.14432 34894 ft 568 kts 116°
2026-04-30 18:41 26.28139 36.22507 34889 ft 568 kts 116°
2026-04-30 18:42 26.25005 36.30572 34882 ft 568 kts 116°
2026-04-30 18:42 26.20286 36.42687 34889 ft 568 kts 116°
2026-04-30 18:45 25.99980 36.85163 34892 ft 566 kts 123°
2026-04-30 18:46 25.96184 36.92841 34894 ft 566 kts 123°
2026-04-30 18:46 25.92388 37.00498 34897 ft 566 kts 123°
2026-04-30 18:47 25.88579 37.08167 34903 ft 566 kts 123°
2026-04-30 18:47 25.84795 37.15775 34908 ft 567 kts 123°
2026-04-30 18:48 25.80988 37.23420 34914 ft 567 kts 123°
2026-04-30 18:48 25.77164 37.31091 34904 ft 567 kts 124°
2026-04-30 18:49 25.73355 37.38736 34897 ft 567 kts 124°
2026-04-30 18:49 25.69533 37.46402 34924 ft 567 kts 124°
2026-04-30 18:50 25.65709 37.54050 34952 ft 566 kts 124°
2026-04-30 18:50 25.61890 37.61679 34941 ft 567 kts 124°
2026-04-30 18:51 25.58052 37.69328 34942 ft 568 kts 124°
2026-04-30 18:51 25.54217 37.76964 34928 ft 568 kts 125°
2026-04-30 18:52 25.50374 37.84604 34922 ft 568 kts 125°
2026-04-30 18:52 25.46529 37.92233 34923 ft 567 kts 125°
2026-04-30 18:53 25.42683 37.99849 34913 ft 567 kts 125°
2026-04-30 18:53 25.38834 38.07462 34912 ft 567 kts 125°
2026-04-30 18:54 25.35215 38.15237 34904 ft 572 kts 118°
2026-04-30 18:54 25.32571 38.23504 34908 ft 578 kts 110°
2026-04-30 18:55 25.30418 38.32077 34923 ft 579 kts 109°
2026-04-30 18:55 25.27188 38.44962 34914 ft 580 kts 110°
2026-04-30 18:56 25.23860 38.57825 34928 ft 581 kts 110°
2026-04-30 18:57 25.20510 38.70681 34912 ft 581 kts 110°
2026-04-30 18:57 25.18272 38.79252 34930 ft 581 kts 110°
2026-04-30 18:58 25.14909 38.92119 34918 ft 582 kts 111°
2026-04-30 18:59 25.11527 39.04994 34949 ft 583 kts 111°
2026-04-30 19:00 25.06996 39.22171 34947 ft 583 kts 111°
2026-04-30 19:01 25.02446 39.39336 34945 ft 583 kts 111°
2026-04-30 19:02 24.99018 39.52204 34959 ft 584 kts 111°
2026-04-30 19:03 24.94429 39.69364 34965 ft 583 kts 111°
2026-04-30 19:04 24.89840 39.86436 34949 ft 583 kts 111°
2026-04-30 19:05 24.85221 40.03530 34935 ft 582 kts 112°
2026-04-30 19:06 24.80588 40.20592 34950 ft 581 kts 112°
2026-04-30 19:06 24.77103 40.33373 34937 ft 581 kts 112°
2026-04-30 19:07 24.73612 40.46132 34940 ft 580 kts 112°
2026-04-30 19:08 24.68952 40.63086 34946 ft 578 kts 112°
2026-04-30 19:09 24.65450 40.75773 34953 ft 578 kts 112°
2026-04-30 19:09 24.63110 40.84223 34942 ft 578 kts 112°
2026-04-30 19:10 24.58416 41.01118 34946 ft 578 kts 112°
2026-04-30 19:11 24.54885 41.13775 34924 ft 578 kts 112°
2026-04-30 19:12 24.52532 41.22194 34951 ft 577 kts 112°
2026-04-30 19:12 24.50171 41.30621 34968 ft 577 kts 112°
2026-04-30 19:13 24.45431 41.47454 34961 ft 577 kts 112°
2026-04-30 19:14 24.43054 41.55870 34951 ft 577 kts 112°
2026-04-30 19:14 24.40690 41.64223 34959 ft 576 kts 112°
2026-04-30 19:15 24.38309 41.72612 34961 ft 576 kts 112°
2026-04-30 19:15 24.34729 41.85189 34959 ft 575 kts 112°
2026-04-30 19:16 24.32341 41.93557 34962 ft 575 kts 112°
2026-04-30 19:17 24.28755 42.06085 34956 ft 573 kts 112°
2026-04-30 19:17 24.25570 42.17176 34964 ft 572 kts 113°
2026-04-30 19:18 24.21979 42.29637 34960 ft 571 kts 113°
2026-04-30 19:19 24.19581 42.37938 34965 ft 571 kts 113°
2026-04-30 19:19 24.15979 42.50369 34962 ft 571 kts 113°
2026-04-30 19:20 24.13574 42.58648 34973 ft 571 kts 113°
2026-04-30 19:21 24.09954 42.71072 34980 ft 571 kts 113°
2026-04-30 19:22 24.05112 42.87634 34985 ft 571 kts 113°
2026-04-30 19:23 23.98316 43.12659 34993 ft 571 kts 111°
2026-04-30 19:24 23.94927 43.25139 34991 ft 570 kts 112°
2026-04-30 19:25 23.89280 43.45789 34988 ft 565 kts 112°
2026-04-30 19:26 23.84782 43.62171 34978 ft 562 kts 112°
2026-04-30 19:27 23.81408 43.74411 34974 ft 560 kts 112°
2026-04-30 19:28 23.78076 43.86652 34965 ft 563 kts 109°
2026-04-30 19:28 23.76784 43.95128 34963 ft 571 kts 98°
2026-04-30 19:29 23.76218 44.03792 34966 ft 572 kts 97°
2026-04-30 19:30 23.75010 44.21083 34976 ft 574 kts 98°
2026-04-30 19:31 23.73669 44.38488 34966 ft 576 kts 98°
2026-04-30 19:31 23.72661 44.51558 34967 ft 576 kts 98°
2026-04-30 19:32 23.71984 44.60263 34975 ft 576 kts 98°
2026-04-30 19:32 23.71302 44.68963 34960 ft 575 kts 98°
2026-04-30 19:33 23.70617 44.77639 34961 ft 573 kts 98°
2026-04-30 19:33 23.69928 44.86298 34967 ft 573 kts 98°
2026-04-30 19:34 23.69233 44.94948 34981 ft 572 kts 99°
2026-04-30 19:35 23.68180 45.07917 34964 ft 571 kts 98°
2026-04-30 19:35 23.67477 45.16527 34953 ft 569 kts 98°
2026-04-30 19:36 23.66772 45.25091 34959 ft 565 kts 98°
2026-04-30 19:36 23.65717 45.37859 34958 ft 562 kts 99°
2026-04-30 19:37 23.65012 45.46324 34957 ft 560 kts 99°
2026-04-30 19:37 23.64303 45.54771 34929 ft 559 kts 99°
2026-04-30 19:38 23.63591 45.63204 34942 ft 559 kts 99°
2026-04-30 19:38 23.62873 45.71662 34954 ft 561 kts 99°
2026-04-30 19:39 23.62149 45.80144 34947 ft 563 kts 99°
2026-04-30 19:39 23.61422 45.88612 34942 ft 565 kts 99°
2026-04-30 19:40 23.60685 45.97156 34953 ft 567 kts 99°
2026-04-30 19:40 23.59939 46.05732 34945 ft 569 kts 99°
2026-04-30 19:41 23.59187 46.14328 34948 ft 570 kts 99°
2026-04-30 19:41 23.58430 46.22939 34947 ft 571 kts 98°
2026-04-30 19:42 23.57666 46.31556 34952 ft 571 kts 98°
2026-04-30 19:42 23.56900 46.40157 34955 ft 570 kts 98°
2026-04-30 19:43 23.56134 46.48744 34965 ft 568 kts 98°
2026-04-30 19:44 23.54958 46.61574 34960 ft 566 kts 98°
2026-04-30 19:44 23.54171 46.70101 34958 ft 565 kts 98°
2026-04-30 19:45 23.53380 46.78615 34958 ft 564 kts 98°
2026-04-30 19:45 23.52585 46.87113 34961 ft 564 kts 98°
2026-04-30 19:46 23.51787 46.95606 34955 ft 564 kts 98°
2026-04-30 19:46 23.50984 47.04109 34951 ft 565 kts 98°
2026-04-30 19:47 23.50274 47.12643 34949 ft 567 kts 94°
2026-04-30 19:47 23.50689 47.21231 34945 ft 570 kts 82°
2026-04-30 19:48 23.52052 47.29739 34950 ft 570 kts 81°
2026-04-30 19:48 23.53418 47.38236 34949 ft 569 kts 81°
2026-04-30 19:49 23.54722 47.46687 34941 ft 569 kts 82°
2026-04-30 19:49 23.56635 47.59429 34956 ft 568 kts 82°
2026-04-30 19:50 23.57905 47.67925 34954 ft 568 kts 82°
2026-04-30 19:50 23.59175 47.76432 34952 ft 569 kts 82°
2026-04-30 19:51 23.60444 47.84949 34956 ft 569 kts 82°
2026-04-30 19:51 23.61709 47.93473 34950 ft 570 kts 83°
2026-04-30 19:52 23.62972 48.02023 34958 ft 571 kts 82°
2026-04-30 19:52 23.64233 48.10592 34950 ft 573 kts 83°
2026-04-30 19:53 23.65491 48.19175 34950 ft 574 kts 83°
2026-04-30 19:53 23.66747 48.27774 34953 ft 574 kts 83°
2026-04-30 19:54 23.67999 48.36382 34948 ft 575 kts 83°
2026-04-30 19:54 23.69247 48.44996 34941 ft 574 kts 83°
2026-04-30 19:55 23.70488 48.53599 34944 ft 574 kts 83°
2026-04-30 19:55 23.71724 48.62196 34945 ft 573 kts 83°
2026-04-30 19:56 23.72952 48.70780 34947 ft 572 kts 83°
2026-04-30 19:56 23.74175 48.79364 34944 ft 572 kts 83°
2026-04-30 19:57 23.75392 48.87936 34945 ft 572 kts 83°
2026-04-30 19:57 23.76604 48.96509 34943 ft 572 kts 83°
2026-04-30 19:58 23.77812 49.05085 34940 ft 572 kts 83°
2026-04-30 19:58 23.79015 49.13663 34940 ft 572 kts 83°
2026-04-30 19:59 23.80213 49.22246 34942 ft 571 kts 83°
2026-04-30 20:00 23.82001 49.35113 34943 ft 572 kts 83°
2026-04-30 20:00 23.83187 49.43699 34947 ft 572 kts 83°
2026-04-30 20:01 23.84950 49.56521 34940 ft 572 kts 83°
2026-04-30 20:01 23.86125 49.65112 34936 ft 572 kts 83°
2026-04-30 20:02 23.87878 49.77996 34931 ft 571 kts 83°
2026-04-30 20:03 23.89616 49.90858 34937 ft 570 kts 83°
2026-04-30 20:03 23.90768 49.99429 34931 ft 570 kts 83°
2026-04-30 20:04 23.91721 50.06543 34929 ft 569 kts 83°
2026-04-30 20:05 23.93431 50.19377 34927 ft 569 kts 83°
2026-04-30 20:05 23.95130 50.32210 34923 ft 569 kts 83°
2026-04-30 20:06 23.96257 50.40775 34924 ft 569 kts 84°
2026-04-30 20:06 23.97379 50.49338 34921 ft 569 kts 84°
2026-04-30 20:07 23.98497 50.57903 34917 ft 569 kts 84°
2026-04-30 20:08 24.00166 50.70761 34914 ft 570 kts 84°
2026-04-30 20:08 24.01274 50.79345 34913 ft 570 kts 84°
2026-04-30 20:09 24.02377 50.87935 34912 ft 570 kts 84°
2026-04-30 20:09 24.04024 51.00827 34908 ft 571 kts 84°
2026-04-30 20:10 24.05662 51.13738 34887 ft 571 kts 84°
2026-04-30 20:11 24.07288 51.26637 34898 ft 570 kts 84°
2026-04-30 20:11 24.08364 51.35233 34900 ft 570 kts 84°
2026-04-30 20:12 24.09961 51.48055 34896 ft 569 kts 84°
2026-04-30 20:13 24.11025 51.56646 34900 ft 569 kts 84°
2026-04-30 20:13 24.12083 51.65232 34889 ft 569 kts 84°
2026-04-30 20:14 24.13136 51.73815 34888 ft 569 kts 84°
2026-04-30 20:14 24.14184 51.82393 34885 ft 569 kts 84°
2026-04-30 20:15 24.15227 51.90977 34886 ft 569 kts 84°
2026-04-30 20:15 24.16265 51.99558 34889 ft 569 kts 84°
2026-04-30 20:16 24.17292 52.08081 34780 ft 553 kts 84°
2026-04-30 20:16 24.17788 52.12203 34665 ft 539 kts 84°
2026-04-30 20:16 24.18272 52.16228 34481 ft 528 kts 84°
2026-04-30 20:16 24.18744 52.20180 34229 ft 519 kts 84°
2026-04-30 20:17 24.19207 52.24063 33988 ft 511 kts 84°
2026-04-30 20:17 24.19661 52.27889 33725 ft 502 kts 84°
2026-04-30 20:17 24.20107 52.31658 33444 ft 495 kts 84°
2026-04-30 20:17 24.20545 52.35358 33174 ft 487 kts 84°
2026-04-30 20:18 24.20975 52.39007 32911 ft 479 kts 84°
2026-04-30 20:18 24.21399 52.42601 32640 ft 472 kts 84°
2026-04-30 20:18 24.21816 52.46155 32379 ft 468 kts 84°
2026-04-30 20:18 24.22229 52.49673 32129 ft 464 kts 84°
2026-04-30 20:19 24.22638 52.53176 31894 ft 464 kts 84°
2026-04-30 20:19 24.23048 52.56685 31659 ft 464 kts 84°
2026-04-30 20:19 24.23455 52.60182 31407 ft 462 kts 84°
2026-04-30 20:19 24.23859 52.63650 31264 ft 457 kts 84°
2026-04-30 20:20 24.24258 52.67083 31179 ft 451 kts 84°
2026-04-30 20:20 24.25047 52.73890 31037 ft 452 kts 84°
2026-04-30 20:21 24.25838 52.80756 30928 ft 455 kts 84°
2026-04-30 20:21 24.26234 52.84201 30767 ft 457 kts 84°
2026-04-30 20:21 24.26632 52.87667 30538 ft 458 kts 84°
2026-04-30 20:21 24.27028 52.91123 30307 ft 455 kts 84°
2026-04-30 20:22 24.27414 52.94493 30069 ft 450 kts 84°
2026-04-30 20:22 24.27801 52.97873 29804 ft 444 kts 84°
2026-04-30 20:22 24.28181 53.01209 29523 ft 439 kts 84°
2026-04-30 20:22 24.28558 53.04518 29253 ft 435 kts 84°
2026-04-30 20:23 24.28930 53.07799 28982 ft 433 kts 84°
2026-04-30 20:23 24.29300 53.11069 28724 ft 431 kts 84°
2026-04-30 20:23 24.29668 53.14325 28470 ft 430 kts 84°
2026-04-30 20:23 24.30033 53.17569 28214 ft 428 kts 84°
2026-04-30 20:24 24.30397 53.20797 27963 ft 426 kts 84°
2026-04-30 20:24 24.30757 53.24006 27719 ft 424 kts 84°
2026-04-30 20:24 24.31116 53.27201 27463 ft 422 kts 84°
2026-04-30 20:24 24.31472 53.30387 27215 ft 419 kts 84°
2026-04-30 20:25 24.32177 53.36698 26729 ft 415 kts 84°
2026-04-30 20:25 24.32525 53.39833 26489 ft 413 kts 84°
2026-04-30 20:26 24.33215 53.46051 26009 ft 409 kts 84°
2026-04-30 20:26 24.33896 53.52203 25540 ft 404 kts 84°
2026-04-30 20:26 24.34231 53.55249 25307 ft 401 kts 84°
2026-04-30 20:27 24.34895 53.61279 24921 ft 393 kts 84°
2026-04-30 20:27 24.35541 53.67182 24863 ft 390 kts 84°
2026-04-30 20:28 24.36191 53.73147 24871 ft 397 kts 84°
2026-04-30 20:28 24.36845 53.79162 24856 ft 397 kts 84°
2026-04-30 20:29 24.37495 53.85164 24852 ft 396 kts 84°
2026-04-30 20:30 24.38463 53.94138 24847 ft 394 kts 84°
2026-04-30 20:30 24.39421 54.03070 24845 ft 393 kts 84°
2026-04-30 20:31 24.40373 54.11997 24843 ft 394 kts 84°
2026-04-30 20:32 24.41324 54.20975 24856 ft 396 kts 84°
2026-04-30 20:32 24.41959 54.26994 24854 ft 399 kts 84°
2026-04-30 20:33 24.42278 54.30020 24858 ft 400 kts 84°
2026-04-30 20:33 24.42915 54.36094 24856 ft 401 kts 84°
2026-04-30 20:33 24.43233 54.39134 24836 ft 402 kts 84°
2026-04-30 20:34 24.43869 54.45232 24829 ft 402 kts 84°
2026-04-30 20:34 24.44501 54.51320 24825 ft 401 kts 84°
2026-04-30 20:35 24.44812 54.54319 24822 ft 400 kts 84°
2026-04-30 20:35 24.45126 54.57351 24823 ft 400 kts 84°
2026-04-30 20:35 24.45753 54.63440 24827 ft 398 kts 84°
2026-04-30 20:36 24.46059 54.66415 24827 ft 398 kts 84°
2026-04-30 20:36 24.46368 54.69431 24829 ft 397 kts 84°
2026-04-30 20:36 24.46983 54.75452 24832 ft 397 kts 84°
2026-04-30 20:37 24.47290 54.78461 24828 ft 397 kts 84°
2026-04-30 20:37 24.47597 54.81474 24832 ft 397 kts 85°
2026-04-30 20:37 24.47903 54.84490 24834 ft 398 kts 85°
2026-04-30 20:37 24.48209 54.87510 24838 ft 398 kts 85°
2026-04-30 20:38 24.48514 54.90530 24839 ft 399 kts 85°
2026-04-30 20:38 24.48820 54.93560 24841 ft 399 kts 85°
2026-04-30 20:38 24.49125 54.96593 24847 ft 400 kts 85°
2026-04-30 20:39 24.49735 55.02668 24843 ft 401 kts 85°
2026-04-30 20:39 24.50040 55.05717 24846 ft 402 kts 85°
2026-04-30 20:39 24.50345 55.08762 24855 ft 402 kts 85°
2026-04-30 20:40 24.50953 55.14868 24853 ft 403 kts 85°
2026-04-30 20:40 24.51256 55.17923 24862 ft 403 kts 85°
2026-04-30 20:40 24.51559 55.20981 24860 ft 403 kts 85°
2026-04-30 20:41 24.52162 55.27088 24865 ft 402 kts 85°
2026-04-30 20:41 24.52463 55.30141 24867 ft 402 kts 85°
2026-04-30 20:41 24.52762 55.33186 24868 ft 401 kts 85°
2026-04-30 20:41 24.53061 55.36232 24869 ft 401 kts 85°
2026-04-30 20:42 24.53358 55.39273 24870 ft 401 kts 85°
2026-04-30 20:42 24.53655 55.42314 24870 ft 400 kts 85°
2026-04-30 20:42 24.54246 55.48386 24877 ft 399 kts 85°
2026-04-30 20:43 24.54536 55.51376 24877 ft 399 kts 85°
2026-04-30 20:43 24.54834 55.54449 24875 ft 399 kts 85°
2026-04-30 20:43 24.55123 55.57440 24873 ft 399 kts 85°
2026-04-30 20:44 24.55706 55.63503 24875 ft 399 kts 85°
2026-04-30 20:44 24.55998 55.66537 24875 ft 399 kts 85°
2026-04-30 20:44 24.56578 55.72605 24872 ft 399 kts 85°
2026-04-30 20:45 24.57156 55.78674 24877 ft 399 kts 85°
2026-04-30 20:45 24.57444 55.81708 24880 ft 399 kts 85°
2026-04-30 20:45 24.57732 55.84742 24876 ft 400 kts 85°
2026-04-30 20:46 24.58591 55.93844 24878 ft 399 kts 85°
2026-04-30 20:46 24.58876 55.96878 24877 ft 399 kts 85°
2026-04-30 20:47 24.59447 56.02939 24865 ft 397 kts 83°
2026-04-30 20:47 24.60155 56.05829 24880 ft 392 kts 61°
2026-04-30 20:48 24.63872 56.09958 24878 ft 384 kts 20°
2026-04-30 20:48 24.66376 56.10910 24880 ft 377 kts
2026-04-30 20:48 24.68942 56.11081 24865 ft 365 kts 347°
2026-04-30 20:48 24.71457 56.10725 24875 ft 364 kts 345°
2026-04-30 20:49 24.73929 56.10322 24844 ft 365 kts 345°
2026-04-30 20:49 24.76437 56.09911 24857 ft 365 kts 345°
2026-04-30 20:49 24.78983 56.09508 24861 ft 366 kts 345°
2026-04-30 20:50 24.84039 56.08744 24845 ft 366 kts 346°
2026-04-30 20:50 24.86556 56.08373 24846 ft 366 kts 346°
2026-04-30 20:50 24.89047 56.08008 24840 ft 365 kts 346°
2026-04-30 20:50 24.90752 56.07759 24839 ft 364 kts 346°
2026-04-30 20:51 24.93260 56.07392 24843 ft 363 kts 346°
2026-04-30 20:51 24.99087 56.06763 24821 ft 367 kts
2026-04-30 20:51 25.00787 56.07173 24842 ft 373 kts 15°
2026-04-30 20:52 25.03860 56.08948 24821 ft 385 kts 36°
2026-04-30 20:52 25.05753 56.11079 24828 ft 395 kts 48°
2026-04-30 20:52 25.08180 56.15377 24799 ft 398 kts 74°
2026-04-30 20:53 25.08560 56.18374 24832 ft 395 kts 94°
2026-04-30 20:53 25.08174 56.21346 24804 ft 390 kts 111°
2026-04-30 20:53 25.07076 56.24029 24830 ft 382 kts 123°
2026-04-30 20:54 25.04520 56.29212 24822 ft 386 kts 123°
2026-04-30 20:54 25.03218 56.31764 24820 ft 387 kts 124°
2026-04-30 20:54 25.01865 56.34369 24817 ft 389 kts 124°
2026-04-30 20:55 24.99142 56.39543 24806 ft 390 kts 125°
2026-04-30 20:55 24.97791 56.42100 24808 ft 391 kts 125°
2026-04-30 20:55 24.96426 56.44680 24810 ft 390 kts 125°
2026-04-30 20:56 24.93697 56.49838 24805 ft 389 kts 125°
2026-04-30 20:56 24.92329 56.52422 24804 ft 389 kts 125°
2026-04-30 20:56 24.89615 56.57547 24806 ft 387 kts 125°
2026-04-30 20:57 24.88262 56.60100 24804 ft 386 kts 125°
2026-04-30 20:57 24.86905 56.62660 24802 ft 385 kts 125°
2026-04-30 20:57 24.85557 56.65199 24805 ft 384 kts 125°
2026-04-30 20:58 24.82866 56.70267 24808 ft 383 kts 125°
2026-04-30 20:58 24.81513 56.72811 24793 ft 383 kts 124°
2026-04-30 20:58 24.80170 56.75337 24793 ft 383 kts 124°
2026-04-30 20:58 24.78825 56.77866 24799 ft 383 kts 124°
2026-04-30 20:59 24.76122 56.82944 24808 ft 385 kts 124°
2026-04-30 20:59 24.74769 56.85482 24810 ft 386 kts 124°
2026-04-30 21:00 24.71127 56.89406 24807 ft 360 kts 164°
2026-04-30 21:00 24.66378 56.90094 24811 ft 340 kts 196°
2026-04-30 21:01 24.62211 56.87999 24814 ft 327 kts 226°
2026-04-30 21:01 24.60730 56.86129 24803 ft 324 kts 241°
2026-04-30 21:01 24.59441 56.81497 24809 ft 324 kts 268°
2026-04-30 21:02 24.59557 56.78988 24812 ft 326 kts 277°
2026-04-30 21:02 24.60254 56.76614 24795 ft 330 kts 295°
2026-04-30 21:02 24.61397 56.74465 24816 ft 330 kts 296°
2026-04-30 21:02 24.62577 56.72301 24820 ft 331 kts 296°
2026-04-30 21:03 24.63758 56.70134 24821 ft 331 kts 296°
2026-04-30 21:03 24.64955 56.67929 24817 ft 331 kts 296°
2026-04-30 21:03 24.66115 56.65777 24812 ft 331 kts 296°
2026-04-30 21:03 24.67283 56.63599 24812 ft 331 kts 296°
2026-04-30 21:04 24.68446 56.61422 24823 ft 330 kts 296°
2026-04-30 21:04 24.69612 56.59235 24823 ft 330 kts 296°
2026-04-30 21:04 24.71920 56.54892 24823 ft 329 kts 296°
2026-04-30 21:05 24.73070 56.52725 24820 ft 328 kts 296°
2026-04-30 21:05 24.74224 56.50549 24829 ft 328 kts 296°
2026-04-30 21:05 24.75370 56.48387 24828 ft 327 kts 296°
2026-04-30 21:05 24.76514 56.46227 24838 ft 327 kts 295°
2026-04-30 21:06 24.77656 56.44069 24830 ft 327 kts 295°
2026-04-30 21:06 24.78804 56.41899 24824 ft 327 kts 295°
2026-04-30 21:06 24.79947 56.39739 24822 ft 327 kts 295°
2026-04-30 21:06 24.81087 56.37581 24822 ft 327 kts 295°
2026-04-30 21:07 24.82229 56.35420 24824 ft 327 kts 295°
2026-04-30 21:07 24.83377 56.33246 24820 ft 327 kts 295°
2026-04-30 21:07 24.84520 56.31080 24818 ft 328 kts 295°
2026-04-30 21:07 24.85664 56.28913 24822 ft 328 kts 295°
2026-04-30 21:08 24.86808 56.26744 24821 ft 328 kts 295°
2026-04-30 21:08 24.87960 56.24559 24835 ft 329 kts 295°
2026-04-30 21:08 24.89107 56.22380 24837 ft 330 kts 295°
2026-04-30 21:08 24.90259 56.20193 24831 ft 330 kts 295°
2026-04-30 21:09 24.91408 56.18009 24825 ft 331 kts 295°
2026-04-30 21:09 24.92566 56.15809 24819 ft 331 kts 295°
2026-04-30 21:09 24.93717 56.13621 24827 ft 330 kts 295°
2026-04-30 21:09 24.94868 56.11433 24821 ft 330 kts 295°
2026-04-30 21:10 24.96005 56.09270 24837 ft 330 kts 295°
2026-04-30 21:10 24.97156 56.07082 24837 ft 330 kts 295°
2026-04-30 21:10 24.98560 56.05034 24820 ft 335 kts 313°
2026-04-30 21:10 25.00511 56.03579 24830 ft 345 kts 329°
2026-04-30 21:11 25.02778 56.02717 24819 ft 355 kts 343°
2026-04-30 21:11 25.05270 56.02515 24817 ft 366 kts 360°
2026-04-30 21:11 25.07822 56.03165 24813 ft 378 kts 19°
2026-04-30 21:11 25.10042 56.04693 24822 ft 387 kts 40°
2026-04-30 21:12 25.11725 56.07018 24825 ft 393 kts 62°
2026-04-30 21:12 25.12637 56.09870 24726 ft 396 kts 82°
2026-04-30 21:12 25.12666 56.12899 24183 ft 396 kts 103°
2026-04-30 21:12 25.11836 56.15771 23658 ft 392 kts 123°
2026-04-30 21:13 25.10187 56.18099 23037 ft 383 kts 145°
2026-04-30 21:13 25.07962 56.19618 22401 ft 373 kts 163°
2026-04-30 21:13 25.05481 56.20243 21762 ft 363 kts 184°
2026-04-30 21:13 25.03024 56.19869 21186 ft 354 kts 203°
2026-04-30 21:14 25.00955 56.18533 20471 ft 342 kts 228°
2026-04-30 21:14 24.99424 56.16541 19934 ft 341 kts 237°
2026-04-30 21:14 24.98303 56.14239 19342 ft 343 kts 251°
2026-04-30 21:14 24.97806 56.11674 18781 ft 345 kts 268°
2026-04-30 21:15 24.98179 56.09061 18236 ft 347 kts 284°
2026-04-30 21:15 24.98875 56.06507 17646 ft 349 kts 285°
2026-04-30 21:15 24.99587 56.03932 17023 ft 353 kts 285°
2026-04-30 21:15 25.00302 56.01333 16404 ft 356 kts 284°
2026-04-30 21:16 25.01013 55.98714 15801 ft 358 kts 284°
2026-04-30 21:16 25.01721 55.96071 15218 ft 360 kts 284°
2026-04-30 21:16 25.02425 55.93416 14637 ft 362 kts 284°
2026-04-30 21:16 25.03120 55.90777 14043 ft 353 kts 283°
2026-04-30 21:17 25.03793 55.88214 13444 ft 344 kts 283°
2026-04-30 21:17 25.04449 55.85707 12820 ft 340 kts 283°
2026-04-30 21:17 25.05097 55.83223 12197 ft 332 kts 284°
2026-04-30 21:17 25.05724 55.80818 11586 ft 322 kts 284°
2026-04-30 21:18 25.06333 55.78481 10970 ft 312 kts 284°
2026-04-30 21:18 25.06916 55.76244 10532 ft 294 kts 284°
2026-04-30 21:18 25.07462 55.74147 10149 ft 277 kts 284°
2026-04-30 21:18 25.07983 55.72140 9641 ft 268 kts 284°
2026-04-30 21:19 25.08491 55.70182 9003 ft 262 kts 284°
2026-04-30 21:19 25.08987 55.68269 8398 ft 257 kts 285°
2026-04-30 21:19 25.09474 55.66393 7792 ft 252 kts 285°
2026-04-30 21:19 25.09952 55.64550 7198 ft 248 kts 285°
2026-04-30 21:20 25.10549 55.62783 6600 ft 245 kts 297°
2026-04-30 21:20 25.11430 55.61189 6021 ft 241 kts 301°
2026-04-30 21:20 25.12331 55.59643 5437 ft 237 kts 301°
2026-04-30 21:20 25.13219 55.58148 4966 ft 229 kts 302°
2026-04-30 21:21 25.14067 55.56686 4483 ft 223 kts 302°
2026-04-30 21:21 25.14872 55.55249 4001 ft 217 kts 302°
2026-04-30 21:21 25.16390 55.52508 3148 ft 202 kts 302°
2026-04-30 21:22 25.17110 55.51208 2648 ft 193 kts 302°
2026-04-30 21:22 25.19036 55.47730 2018 ft 168 kts 303°
2026-04-30 21:23 25.19633 55.46652 1889 ft 161 kts 303°
2026-04-30 21:23 25.20204 55.45621 1620 ft 153 kts 303°
2026-04-30 21:23 25.21299 55.43624 1024 ft 154 kts 301°
2026-04-30 21:24 25.21859 55.42603 857 ft 158 kts 300°
2026-04-30 21:24 25.22428 55.41565 584 ft 161 kts 300°
2026-04-30 21:24 25.23017 55.40506 314 ft 162 kts 300°
2026-04-30 21:24 25.23605 55.39455 52 ft 159 kts 299°
2026-04-30 21:25 25.24487 55.37869 29 ft 60 kts 302°
2026-04-30 21:25 25.24656 55.37567 27 ft 44 kts 302°
2026-04-30 21:25 25.24761 55.37363 28 ft 20 kts 290°
2026-04-30 21:26 25.24784 55.37125 28 ft 15 kts 270°
2026-04-30 21:26 25.24791 55.37011 27 ft 11 kts 275°
2026-04-30 21:27 25.24701 55.36914 31 ft 10 kts 210°
2026-04-30 21:27 25.24643 55.36876 29 ft 10 kts 211°
2026-04-30 21:27 25.24586 55.36836 30 ft 10 kts 212°
2026-04-30 21:28 25.24471 55.36759 30 ft 10 kts 212°
2026-04-30 21:28 25.24422 55.36726 29 ft 5 kts 203°
2026-04-30 21:28 25.24398 55.36743 28 ft 1 kts 97°
2026-04-30 21:29 25.24401 55.36754 28 ft 4 kts 75°
2026-04-30 21:29 25.24425 55.36861 29 ft 2 kts 76°
2026-04-30 21:30 25.24426 55.36870 29 ft 0 kts 77°